Find Starlink 3145

NORAD ID: 49455 Int'l Des: 2021-104 Owner: SPXS Country: US Constellation: starlink operational
LEOCIRCULAR

Current View

Loading 3D Globe...

About Starlink 3145

Description loading...

Upcoming Passes

Passes for default location (London). Set your location on the main map for personalized predictions.

Altitude History

Loading altitude history...

Two-Line Element Set

1 49455U 21104AZ 26150.60030016 -.00000133 00000-0 97421-5 0 9991
2 49455 53.1959 211.3988 0001130 97.2540 262.8580 15.08827573251145
Epoch: May 30, 2026 • Age: 23 hours

Current Status

Altitude 558.9 km
Velocity 7.58 km/s
Sub-Earth Point -52.90°S, 10.19°E
Launch Date Nov 13, 2021
Age 4.5 years
Type internet

Technical Details

Classification Payload
Mass 290.00 kg
Dry Mass 270.00 kg
Total Mass 290.00 kg
Length 0.20 m
Diameter 2.80 m
Span 9.00 m
Shape Box + pan
Manufacturer SPXS
Bus Type Starlink
Phase Status In Orbit
Owner/State SPXS/US

Most Searched